Voltar ao catálogo

ISO

AtivoCiênciaHEO
NORAD 23715·PAYLOAD·🇪🇺 EU

Lançado Nov 17, 1995 de Guiana Space Centre

Loading…

Próximas Passagens (próximas 24 horas)

TLE

AtualizadoSource: Space-Track

Época: Sep 13, 2026, 20:24 UTC

1 23715U 95062A   26256.85067171 -.00000438  00000-0 -32695-3 0  9991
2 23715   0.5258  19.6704 8326062 299.2826   2.6747  1.02205213114606

Acompanhe ISO em tempo real com AllMySat

Download on the App Store